TimeEST,TemperatureF,Dew PointF,Humidity,Sea Level PressureIn,VisibilityMPH,Wind Direction,Wind SpeedMPH,Gust SpeedMPH,PrecipitationIn,Events,Conditions,WindDirDegrees,DateUTC
12:53 AM,30.0,19.9,66,30.17,10.0,West,3.5,-,N/A,,Overcast,280,2013-02-25 05:53:00
1:53 AM,30.9,19.9,64,30.18,10.0,Calm,Calm,-,N/A,,Overcast,0,2013-02-25 06:53:00
2:53 AM,32.0,19.0,59,30.18,10.0,Calm,Calm,-,N/A,,Overcast,0,2013-02-25 07:53:00
3:53 AM,32.0,19.0,59,30.18,10.0,Calm,Calm,-,N/A,,Overcast,0,2013-02-25 08:53:00
4:53 AM,30.0,19.9,66,30.18,10.0,Calm,Calm,-,N/A,,Overcast,0,2013-02-25 09:53:00
5:53 AM,30.0,21.0,69,30.19,10.0,Calm,Calm,-,N/A,,Overcast,0,2013-02-25 10:53:00
6:53 AM,28.9,21.0,72,30.20,10.0,Calm,Calm,-,N/A,,Overcast,0,2013-02-25 11:53:00
7:53 AM,30.0,21.0,69,30.22,10.0,Calm,Calm,-,N/A,,Overcast,0,2013-02-25 12:53:00
8:53 AM,30.0,21.9,72,30.25,10.0,SW,4.6,-,N/A,,Overcast,220,2013-02-25 13:53:00
9:53 AM,32.0,23.0,69,30.25,10.0,SW,4.6,-,N/A,,Overcast,230,2013-02-25 14:53:00
10:53 AM,34.0,21.9,61,30.22,10.0,South,3.5,-,N/A,,Overcast,190,2013-02-25 15:53:00
11:53 AM,35.1,23.0,61,30.23,10.0,SW,5.8,-,N/A,,Overcast,220,2013-02-25 16:53:00
12:53 PM,35.6,19.4,52,30.20,10.0,South,6.9,-,N/A,,Overcast,190,2013-02-25 17:53:00
1:53 PM,35.1,21.0,57,30.20,10.0,South,3.5,-,N/A,,Overcast,190,2013-02-25 18:53:00
2:53 PM,36.0,21.0,55,30.19,10.0,South,4.6,-,N/A,,Overcast,180,2013-02-25 19:53:00
3:53 PM,37.9,21.0,51,30.19,10.0,Calm,Calm,-,N/A,,Mostly Cloudy,0,2013-02-25 20:53:00
4:53 PM,36.0,21.0,55,30.19,10.0,Calm,Calm,-,N/A,,Clear,0,2013-02-25 21:53:00
5:53 PM,34.0,21.9,61,30.17,10.0,East,6.9,-,N/A,,Clear,80,2013-02-25 22:53:00
6:53 PM,32.0,21.0,64,30.18,10.0,East,5.8,-,N/A,,Clear,80,2013-02-25 23:53:00
7:53 PM,28.0,19.0,69,30.19,10.0,NE,4.6,-,N/A,,Clear,50,2013-02-26 00:53:00
8:53 PM,28.0,19.0,69,30.19,10.0,East,6.9,-,N/A,,Clear,80,2013-02-26 01:53:00
9:53 PM,28.9,18.0,64,30.16,10.0,ENE,9.2,-,N/A,,Clear,70,2013-02-26 02:53:00
10:53 PM,27.0,18.0,69,30.16,10.0,East,6.9,-,N/A,,Clear,80,2013-02-26 03:53:00
11:53 PM,25.0,18.0,75,30.17,10.0,ESE,6.9,-,N/A,,Clear,110,2013-02-26 04:53:00